When you browse on this site, cookies collect data to enhance your experience and personalize the content and advertising you see.
Visit our Privacy Policy to learn more. By continuing to use the site, you agree to this use of cookies and data.
  • In Czech Republic
  • List of Countries
  • For 7 days
  • Water Temperature
  • Satellite Maps
  • Weather Map
  • Weather Widgets
  • user-avatar
    Login

    Hourly Weather Alekseevka

    Today, 24 July, Wednesday

    Time Temperature Precipitation Wind Pressure Humidity
    00:00 +14°C° 0 mm 3 mps 744 mmHg 95%
    01:00 +14°C° 0 mm 3 mps 744 mmHg 95%
    02:00 +14°C° 0 mm 3 mps 744 mmHg 95%
    03:00 +14°C° 0 mm 3 mps 744 mmHg 95%
    04:00 +14°C° 0 mm 3 mps 744 mmHg 95%
    05:00 +13°C° 0 mm 3 mps 744 mmHg 95%
    06:00 +16°C° 0 mm 3 mps 745 mmHg 89%
    07:00 +18°C° 0 mm 4 mps 745 mmHg 84%
    08:00 +19°C° 0 mm 4 mps 745 mmHg 78%
    09:00 +21°C° 0.1 mm 4 mps 745 mmHg 72%
    10:00 +22°C° 0.1 mm 4 mps 745 mmHg 65%
    11:00 +23°C° 0.1 mm 4 mps 746 mmHg 58%
    12:00 +25°C° 0.2 mm 4 mps 746 mmHg 57%
    13:00 +25°C° 0.2 mm 4 mps 746 mmHg 55%
    14:00 +25°C° 0.2 mm 4 mps 746 mmHg 54%
    15:00 +25°C° 0.1 mm 4 mps 746 mmHg 57%
    16:00 +23°C° 0.1 mm 4 mps 746 mmHg 61%
    17:00 +24°C° 0.1 mm 3 mps 746 mmHg 64%
    18:00 +21°C° 0.1 mm 3 mps 746 mmHg 70%
    19:00 +20°C° 0.1 mm 3 mps 746 mmHg 76%
    20:00 +18°C° 0.1 mm 2 mps 746 mmHg 81%
    21:00 +17°C° 0 mm 2 mps 746 mmHg 83%
    22:00 +16°C° 0 mm 3 mps 746 mmHg 85%
    23:00 +14°C° 0 mm 3 mps 747 mmHg 86%

    Tomorrow, 25 July, Thursday

    Time Temperature Precipitation Wind Pressure Humidity
    00:00 +14°C° 0 mm 3 mps 747 mmHg 87%
    01:00 +15°C° 0 mm 2 mps 747 mmHg 88%
    02:00 +14°C° 0 mm 2 mps 746 mmHg 89%
    03:00 +14°C° 0 mm 2 mps 747 mmHg 88%
    04:00 +15°C° 0 mm 2 mps 747 mmHg 87%
    05:00 +15°C° 0 mm 2 mps 747 mmHg 87%
    06:00 +16°C° 0.1 mm 2 mps 747 mmHg 87%
    07:00 +16°C° 0.1 mm 2 mps 747 mmHg 87%
    08:00 +17°C° 0.1 mm 2 mps 747 mmHg 88%
    09:00 +17°C° 0.4 mm 2 mps 747 mmHg 89%
    10:00 +18°C° 0.4 mm 2 mps 746 mmHg 89%
    11:00 +19°C° 0.4 mm 1 mps 746 mmHg 90%
    12:00 +19°C° 0.9 mm 2 mps 746 mmHg 85%
    13:00 +20°C° 0.9 mm 2 mps 746 mmHg 79%
    14:00 +22°C° 0.9 mm 3 mps 745 mmHg 73%
    15:00 +21°C° 1 mm 3 mps 745 mmHg 76%
    16:00 +21°C° 1 mm 2 mps 745 mmHg 79%
    17:00 +21°C° 1 mm 2 mps 745 mmHg 82%
    18:00 +19°C° 0.3 mm 2 mps 745 mmHg 85%
    19:00 +18°C° 0.3 mm 2 mps 745 mmHg 89%
    20:00 +17°C° 0.3 mm 2 mps 745 mmHg 92%
    21:00 +16°C° 0 mm 2 mps 745 mmHg 93%
    22:00 +16°C° 0 mm 2 mps 745 mmHg 94%
    23:00 +15°C° 0 mm 2 mps 745 mmHg 96%

    Day after tomorrow, 26 July, Friday

    Time Temperature Precipitation Wind Pressure Humidity
    00:00 +15°C° 0 mm 2 mps 745 mmHg 96%
    01:00 +13°C° 0 mm 3 mps 745 mmHg 97%
    02:00 +13°C° 0 mm 3 mps 745 mmHg 97%
    03:00 +13°C° 0 mm 3 mps 745 mmHg 97%
    04:00 +13°C° 0 mm 3 mps 745 mmHg 98%
    05:00 +13°C° 0 mm 3 mps 745 mmHg 98%
    06:00 +14°C° 0 mm 3 mps 745 mmHg 95%
    07:00 +16°C° 0 mm 3 mps 745 mmHg 92%
    08:00 +18°C° 0 mm 3 mps 745 mmHg 90%
    09:00 +19°C° 0 mm 4 mps 745 mmHg 83%
    10:00 +21°C° 0 mm 4 mps 746 mmHg 76%
    11:00 +22°C° 0 mm 4 mps 746 mmHg 69%
    12:00 +22°C° 0.1 mm 4 mps 746 mmHg 71%
    13:00 +22°C° 0.1 mm 4 mps 746 mmHg 73%
    14:00 +22°C° 0.1 mm 5 mps 745 mmHg 75%
    15:00 +21°C° 0.5 mm 4 mps 745 mmHg 81%
    16:00 +20°C° 0.5 mm 4 mps 745 mmHg 88%
    17:00 +18°C° 0.5 mm 3 mps 745 mmHg 94%
    18:00 +18°C° 0 mm 3 mps 745 mmHg 95%
    19:00 +18°C° 0 mm 3 mps 745 mmHg 96%
    20:00 +18°C° 0 mm 2 mps 745 mmHg 96%
    21:00 +18°C° 0.1 mm 2 mps 745 mmHg 96%
    22:00 +18°C° 0.1 mm 2 mps 745 mmHg 96%
    23:00 +18°C° 0.1 mm 2 mps 745 mmHg 95%

    27 July, Saturday

    Time Temperature Precipitation Wind Pressure Humidity
    00:00 +18°C° 0 mm 2 mps 745 mmHg 95%
    01:00 +18°C° 0 mm 2 mps 744 mmHg 95%
    02:00 +17°C° 0 mm 3 mps 744 mmHg 96%
    03:00 +17°C° 0 mm 3 mps 744 mmHg 96%
    04:00 +17°C° 0 mm 3 mps 744 mmHg 96%
    05:00 +17°C° 0 mm 3 mps 744 mmHg 96%
    06:00 +18°C° 0 mm 4 mps 744 mmHg 94%
    07:00 +19°C° 0 mm 4 mps 744 mmHg 91%
    08:00 +20°C° 0 mm 5 mps 744 mmHg 88%
    09:00 +22°C° 0 mm 5 mps 744 mmHg 81%
    10:00 +23°C° 0 mm 6 mps 744 mmHg 75%
    11:00 +24°C° 0 mm 6 mps 744 mmHg 69%
    12:00 +26°C° 0.2 mm 6 mps 744 mmHg 69%
    13:00 +26°C° 0.2 mm 6 mps 743 mmHg 69%
    14:00 +26°C° 0.2 mm 6 mps 743 mmHg 68%
    15:00 +26°C° 0.3 mm 6 mps 743 mmHg 70%
    16:00 +26°C° 0.3 mm 5 mps 743 mmHg 71%
    17:00 +26°C° 0.3 mm 5 mps 743 mmHg 73%
    18:00 +23°C° 0.4 mm 4 mps 743 mmHg 78%
    19:00 +22°C° 0.4 mm 3 mps 743 mmHg 84%
    20:00 +20°C° 0.4 mm 3 mps 743 mmHg 90%
    21:00 +20°C° 0 mm 3 mps 743 mmHg 92%
    22:00 +19°C° 0 mm 3 mps 743 mmHg 93%
    23:00 +18°C° 0 mm 3 mps 743 mmHg 95%

    28 July, Sunday

    Time Temperature Precipitation Wind Pressure Humidity
    00:00 +18°C° 0 mm 3 mps 743 mmHg 95%
    01:00 +18°C° 0 mm 2 mps 743 mmHg 95%
    02:00 +17°C° 0 mm 2 mps 743 mmHg 96%
    03:00 +17°C° 0 mm 2 mps 743 mmHg 95%
    04:00 +17°C° 0 mm 2 mps 743 mmHg 95%
    05:00 +17°C° 0 mm 2 mps 743 mmHg 95%
    06:00 +18°C° 0 mm 2 mps 743 mmHg 91%
    07:00 +20°C° 0 mm 3 mps 743 mmHg 86%
    08:00 +22°C° 0 mm 3 mps 743 mmHg 81%
    09:00 +24°C° 0.4 mm 3 mps 743 mmHg 80%
    10:00 +24°C° 0.4 mm 3 mps 743 mmHg 78%
    11:00 +25°C° 0.4 mm 4 mps 743 mmHg 76%
    12:00 +25°C° 0.7 mm 4 mps 743 mmHg 76%
    13:00 +25°C° 0.7 mm 4 mps 742 mmHg 75%
    14:00 +25°C° 0.7 mm 5 mps 742 mmHg 74%
    15:00 +25°C° 0.5 mm 4 mps 742 mmHg 75%
    16:00 +25°C° 0.5 mm 4 mps 742 mmHg 75%
    17:00 +23°C° 0.5 mm 4 mps 742 mmHg 75%
    18:00 +22°C° 0.1 mm 4 mps 742 mmHg 79%
    19:00 +20°C° 0.1 mm 4 mps 743 mmHg 83%
    20:00 +18°C° 0.1 mm 4 mps 743 mmHg 87%
    21:00 +17°C° 0 mm 3 mps 743 mmHg 89%
    22:00 +14°C° 0 mm 3 mps 743 mmHg 91%
    23:00 +14°C° 0 mm 2 mps 744 mmHg 93%

    29 July, Monday

    Time Temperature Precipitation Wind Pressure Humidity
    00:00 +13°C° 0 mm 2 mps 744 mmHg 93%
    01:00 +12°C° 0 mm 2 mps 744 mmHg 92%
    02:00 +12°C° 0 mm 2 mps 744 mmHg 92%
    03:00 +10°C° 0 mm 2 mps 744 mmHg 91%
    04:00 +10°C° 0 mm 2 mps 745 mmHg 90%
    05:00 +9°C° 0 mm 2 mps 745 mmHg 89%
    06:00 +10°C° 0 mm 2 mps 745 mmHg 82%
    07:00 +12°C° 0 mm 3 mps 745 mmHg 75%
    08:00 +13°C° 0 mm 3 mps 745 mmHg 68%
    09:00 +14°C° 0 mm 3 mps 746 mmHg 63%
    10:00 +17°C° 0 mm 3 mps 746 mmHg 59%
    11:00 +18°C° 0 mm 3 mps 746 mmHg 54%
    12:00 +18°C° 0 mm 3 mps 746 mmHg 55%
    13:00 +18°C° 0 mm 3 mps 746 mmHg 56%
    14:00 +18°C° 0 mm 3 mps 746 mmHg 58%
    15:00 +18°C° 0 mm 3 mps 746 mmHg 60%
    16:00 +18°C° 0 mm 3 mps 746 mmHg 62%
    17:00 +18°C° 0 mm 4 mps 746 mmHg 64%
    18:00 +16°C° 0 mm 3 mps 746 mmHg 67%
    19:00 +14°C° 0 mm 2 mps 746 mmHg 71%
    20:00 +12°C° 0 mm 2 mps 746 mmHg 75%
    21:00 +12°C° 0 mm 2 mps 746 mmHg 77%
    22:00 +10°C° 0 mm 2 mps 746 mmHg 79%
    23:00 +10°C° 0 mm 2 mps 746 mmHg 81%
    Show more